Regional Weather Roundup
Issued by NWS

Home | Current Version | Previous Version | Graphics & Text | Print | Product List | Glossary On
Versions: 1 2 3 4 5 6 7 8 9 10 11 12 13 14 15 16 17 18 19 20 21 22 23 24 25 26 27 28 29 30 31 32 33 34 35 36 37 38 39 40 41 42 43 44 45 46 47 48 49 50
000
ASUS43 KOAX 242110
RWRNE

WEATHER ROUNDUP FOR NEBRASKA
NATIONAL WEATHER SERVICE OMAHA NE
400 PM CDT MON APR 24 2017

NOTES: SATELLITE DATA IS BEING USED TO AUGMENT CLOUD COVER ABOVE
       12000 FEET.
       "FAIR" INDICATES FEW OR NO CLOUDS BELOW 12,000 FEET WITH NO
       SIGNIFICANT WEATHER AND/OR OBSTRUCTIONS TO VISIBILITY.

  * THESE STATIONS DO NOT REPORT WEATHER SUCH AS RAIN...SNOW OR FOG.

NEZ001>004-019>022-054>056-242200-
NEBRASKA PANHANDLE

CITY           SKY/WX    TMP DP  RH WIND       PRES   REMARKS
SCOTTSBLUFF    CLOUDY    68  30  24 VRB5      29.58F
ALLIANCE       CLOUDY    64  34  32 NW13      29.58S
CHADRON        SUNNY     66  32  28 NW14      29.57F
KIMBALL        CLOUDY    62  33  32 N5        29.62F
SIDNEY         CLOUDY    67  34  29 N10       29.61F
$$

NEZ057>060-069>072-079>082-242200-
SOUTHWEST NEBRASKA

CITY           SKY/WX    TMP DP  RH WIND       PRES   REMARKS
NORTH PLATTE   SUNNY     73  43  33 N13G24    29.54F
IMPERIAL       MOSUNNY   71  35  26 N9        29.56F
LEXINGTON      CLOUDY    73  42  33 N13G18    29.53F
MCCOOK         MOSUNNY   77  42  28 NW13G26   29.51F
OGALLALA       CLOUDY    73  32  22 N13G20    29.56F
$$

NEZ005>010-023>029-035>040-094-242200-
NORTH CENTRAL NEBRASKA

CITY           SKY/WX    TMP DP  RH WIND       PRES   REMARKS
VALENTINE      SUNNY     60  39  45 N15G23    29.58F
AINSWORTH      MOSUNNY   57  43  59 N14G21    29.58F
BROKEN BOW     SUNNY     68  43  40 N16G24    29.56R
O`NEILL        SUNNY     64  42  45 NW13      29.55S
ORD            MOSUNNY   69  44  40 NW8       29.52S
THEDFORD       CLOUDY    67  42  40 N15G23    29.57F
$$

NEZ041-046>049-061>064-073>077-083>087-242200-
SOUTH CENTRAL NEBRASKA

CITY           SKY/WX    TMP DP  RH WIND       PRES   REMARKS
GRAND ISLAND   SUNNY     74  42  31 S10G22    29.51F
AURORA         SUNNY     74  40  29 SW17G24   29.50F
HASTINGS       SUNNY     74  41  30 SW8       29.51F
HEBRON         SUNNY     75  42  29 S17G24    29.51F
HOLDREGE       SUNNY     70  38  31 NW7       29.52F
KEARNEY *      SUNNY     70  39  32 W7        29.53F
YORK           CLOUDY    73  41  31 S20G26    29.51S
$$

NEZ011>018-030>034-042>045-242200-
NORTHEAST NEBRASKA

CITY           SKY/WX    TMP DP  RH WIND       PRES   REMARKS
NORFOLK        CLOUDY    67  40  37 SW9       29.51F
ALBION         PTSUNNY   67  39  36 SW10G20   29.52F
BLAIR          PTSUNNY   74  40  29 S23G32    29.54F
FREMONT        MOSUNNY   74  40  30 S21G31    29.53F
TEKAMAH        MOSUNNY   73  41  31 S28G38    29.52F
WAYNE          CLOUDY    67  44  43 SW12      29.51F
$$

NEZ050>053-065>068-078-088>093-242200-
SOUTHEAST NEBRASKA

CITY           SKY/WX    TMP DP  RH WIND       PRES   REMARKS
LINCOLN        CLOUDY    73  43  33 S20G33    29.53F
OMAHA EPPLEY   PTSUNNY   75  38  26 S30G40    29.54F
BEATRICE       CLOUDY    73  47  39 S17G30    29.55F
FALLS CITY     CLOUDY    72  41  32 S24G31    29.58F
NEBRASKA CITY  CLOUDY    71  29  21 S25G33    29.57F
PLATTSMOUTH    CLOUDY    73  29  20 S24G35    29.57F
$$

NEZ044-045-051>053-067-242200-
OMAHA AREA

CITY           SKY/WX    TMP DP  RH WIND       PRES   REMARKS
OMAHA EPPLEY   PTSUNNY   75  38  26 S30G40    29.54F
BLAIR          PTSUNNY   74  40  29 S23G32    29.54F
FREMONT        MOSUNNY   74  40  30 S21G31    29.53F
MILLARD        PTSUNNY   75  43  31 S18G29    29.55F
OFFUTT AFB     PTSUNNY   74  38  26 S26G32    29.54F
PLATTSMOUTH    CLOUDY    73  29  20 S24G35    29.57F
WAHOO          FAIR      75  39  27 S26G37    29.53F
$$




USA.gov is the U.S. government's official web portal to all federal, state and local government web resources and services.